When you browse on this site, cookies collect data to enhance your experience and personalize the content and advertising you see.
Visit our Privacy Policy to learn more. By continuing to use the site, you agree to this use of cookies and data.
  • In Hungary
  • List of Countries
  • For 7 days
  • Water Temperature
  • Satellite Maps
  • Weather Map
  • News
  • Weather Widgets
  • user-avatar
    Login

    Hourly Weather Khagaul

    Today, 25 March, Monday

    Time Temperature Precipitation Wind Pressure Humidity
    00:00 +26°C° 0 mm 1 mps 751 mmHg 27%
    01:00 +26°C° 0 mm 1 mps 751 mmHg 29%
    02:00 +25°C° 0 mm 1 mps 751 mmHg 30%
    03:00 +25°C° 0 mm 1 mps 751 mmHg 31%
    04:00 +24°C° 0 mm 1 mps 751 mmHg 31%
    05:00 +24°C° 0 mm 1 mps 751 mmHg 32%
    06:00 +23°C° 0 mm 2 mps 751 mmHg 37%
    07:00 +25°C° 0 mm 1 mps 752 mmHg 33%
    08:00 +27°C° 0 mm 1 mps 752 mmHg 30%
    09:00 +29°C° 0 mm 1 mps 753 mmHg 27%
    10:00 +32°C° 0 mm 1 mps 753 mmHg 24%
    11:00 +34°C° 0 mm 1 mps 753 mmHg 21%
    12:00 +37°C° 0 mm 2 mps 753 mmHg 18%
    13:00 +38°C° 0 mm 3 mps 752 mmHg 17%
    14:00 +38°C° 0 mm 4 mps 752 mmHg 16%
    15:00 +40°C° 0 mm 5 mps 751 mmHg 15%
    16:00 +38°C° 0 mm 4 mps 751 mmHg 17%
    17:00 +37°C° 0 mm 3 mps 750 mmHg 18%
    18:00 +37°C° 0 mm 3 mps 750 mmHg 20%
    19:00 +35°C° 0 mm 2 mps 750 mmHg 21%
    20:00 +32°C° 0 mm 2 mps 751 mmHg 23%
    21:00 +31°C° 0 mm 2 mps 751 mmHg 24%
    22:00 +30°C° 0 mm 2 mps 751 mmHg 25%
    23:00 +29°C° 0 mm 2 mps 751 mmHg 26%

    Tomorrow, 26 March, Tuesday

    Time Temperature Precipitation Wind Pressure Humidity
    00:00 +29°C° 0 mm 2 mps 751 mmHg 27%
    01:00 +28°C° 0 mm 2 mps 751 mmHg 28%
    02:00 +28°C° 0 mm 1 mps 750 mmHg 29%
    03:00 +27°C° 0 mm 1 mps 750 mmHg 29%
    04:00 +27°C° 0 mm 2 mps 751 mmHg 32%
    05:00 +26°C° 0 mm 3 mps 751 mmHg 35%
    06:00 +26°C° 0 mm 4 mps 751 mmHg 38%
    07:00 +27°C° 0.5 mm 4 mps 752 mmHg 39%
    08:00 +28°C° 0.5 mm 3 mps 753 mmHg 39%
    09:00 +29°C° 0.5 mm 2 mps 754 mmHg 40%
    10:00 +30°C° 0.2 mm 3 mps 754 mmHg 37%
    11:00 +32°C° 0.2 mm 4 mps 754 mmHg 35%
    12:00 +33°C° 0.2 mm 6 mps 754 mmHg 32%
    13:00 +34°C° 0 mm 5 mps 753 mmHg 30%
    14:00 +34°C° 0 mm 4 mps 752 mmHg 28%
    15:00 +35°C° 0 mm 2 mps 751 mmHg 26%
    16:00 +35°C° 0 mm 2 mps 751 mmHg 27%
    17:00 +34°C° 0 mm 2 mps 751 mmHg 28%
    18:00 +34°C° 0 mm 2 mps 751 mmHg 29%
    19:00 +31°C° 0.3 mm 3 mps 751 mmHg 34%
    20:00 +29°C° 0.3 mm 4 mps 752 mmHg 40%
    21:00 +27°C° 0.3 mm 4 mps 753 mmHg 45%
    22:00 +26°C° 0.1 mm 4 mps 753 mmHg 48%
    23:00 +26°C° 0.1 mm 4 mps 753 mmHg 51%

    Day after tomorrow, 27 March, Wednesday

    Time Temperature Precipitation Wind Pressure Humidity
    00:00 +25°C° 0.1 mm 4 mps 754 mmHg 54%
    01:00 +24°C° 0.1 mm 3 mps 753 mmHg 56%
    02:00 +24°C° 0.1 mm 2 mps 753 mmHg 58%
    03:00 +24°C° 0.1 mm 1 mps 753 mmHg 59%
    04:00 +24°C° 0 mm 1 mps 753 mmHg 59%
    05:00 +23°C° 0 mm 1 mps 753 mmHg 58%
    06:00 +23°C° 0 mm 1 mps 753 mmHg 57%
    07:00 +25°C° 0 mm 1 mps 754 mmHg 52%
    08:00 +27°C° 0 mm 1 mps 754 mmHg 47%
    09:00 +29°C° 0 mm 1 mps 755 mmHg 42%
    10:00 +30°C° 0 mm 1 mps 755 mmHg 38%
    11:00 +32°C° 0 mm 2 mps 755 mmHg 33%
    12:00 +34°C° 0 mm 2 mps 755 mmHg 29%
    13:00 +35°C° 0 mm 2 mps 754 mmHg 27%
    14:00 +35°C° 0 mm 2 mps 753 mmHg 25%
    15:00 +36°C° 0 mm 3 mps 752 mmHg 23%
    16:00 +36°C° 0 mm 2 mps 752 mmHg 23%
    17:00 +35°C° 0 mm 2 mps 751 mmHg 24%
    18:00 +35°C° 0 mm 2 mps 751 mmHg 25%
    19:00 +32°C° 0 mm 2 mps 752 mmHg 27%
    20:00 +31°C° 0 mm 2 mps 752 mmHg 28%
    21:00 +30°C° 0 mm 2 mps 752 mmHg 30%
    22:00 +29°C° 0 mm 2 mps 752 mmHg 31%
    23:00 +28°C° 0 mm 1 mps 752 mmHg 31%

    28 March, Thursday

    Time Temperature Precipitation Wind Pressure Humidity
    00:00 +28°C° 0 mm 1 mps 752 mmHg 32%
    01:00 +27°C° 0 mm 1 mps 752 mmHg 33%
    02:00 +27°C° 0 mm 1 mps 751 mmHg 34%
    03:00 +26°C° 0 mm 1 mps 751 mmHg 36%
    04:00 +26°C° 0 mm 1 mps 751 mmHg 37%
    05:00 +25°C° 0 mm 1 mps 751 mmHg 38%
    06:00 +25°C° 0 mm 1 mps 752 mmHg 39%
    07:00 +27°C° 0 mm 2 mps 752 mmHg 36%
    08:00 +29°C° 0 mm 2 mps 753 mmHg 32%
    09:00 +31°C° 0 mm 2 mps 754 mmHg 29%
    10:00 +33°C° 0 mm 1 mps 754 mmHg 26%
    11:00 +35°C° 0 mm 1 mps 753 mmHg 23%
    12:00 +37°C° 0 mm 1 mps 753 mmHg 20%
    13:00 +37°C° 0 mm 1 mps 752 mmHg 18%
    14:00 +36°C° 0 mm 0 mps 751 mmHg 17%
    15:00 +37°C° 0 mm 0 mps 751 mmHg 16%
    16:00 +36°C° 0 mm 0 mps 750 mmHg 17%
    17:00 +35°C° 0 mm 0 mps 750 mmHg 18%
    18:00 +34°C° 0 mm 0 mps 750 mmHg 19%
    19:00 +35°C° 0 mm 1 mps 750 mmHg 20%
    20:00 +34°C° 0 mm 2 mps 750 mmHg 21%
    21:00 +32°C° 0 mm 2 mps 751 mmHg 22%
    22:00 +31°C° 0 mm 2 mps 751 mmHg 23%
    23:00 +31°C° 0 mm 2 mps 751 mmHg 24%

    29 March, Friday

    Time Temperature Precipitation Wind Pressure Humidity
    00:00 +30°C° 0 mm 2 mps 751 mmHg 25%
    01:00 +29°C° 0 mm 2 mps 750 mmHg 27%
    02:00 +28°C° 0 mm 1 mps 749 mmHg 28%
    03:00 +28°C° 0 mm 1 mps 749 mmHg 29%
    04:00 +27°C° 0 mm 1 mps 749 mmHg 30%
    05:00 +27°C° 0 mm 1 mps 749 mmHg 31%
    06:00 +27°C° 0 mm 1 mps 749 mmHg 31%
    07:00 +29°C° 0 mm 2 mps 750 mmHg 29%
    08:00 +31°C° 0 mm 2 mps 751 mmHg 26%
    09:00 +34°C° 0 mm 2 mps 751 mmHg 23%
    10:00 +36°C° 0 mm 2 mps 751 mmHg 21%
    11:00 +38°C° 0 mm 2 mps 751 mmHg 19%
    12:00 +39°C° 0 mm 2 mps 751 mmHg 17%
    13:00 +40°C° 0 mm 1 mps 750 mmHg 16%
    14:00 +41°C° 0 mm 1 mps 749 mmHg 14%
    15:00 +41°C° 0 mm 1 mps 748 mmHg 13%
    16:00 +41°C° 0 mm 1 mps 748 mmHg 14%
    17:00 +40°C° 0 mm 2 mps 748 mmHg 15%
    18:00 +39°C° 0 mm 2 mps 748 mmHg 16%
    19:00 +37°C° 0 mm 2 mps 748 mmHg 17%
    20:00 +36°C° 0 mm 2 mps 749 mmHg 18%
    21:00 +34°C° 0 mm 2 mps 749 mmHg 20%
    22:00 +32°C° 0 mm 2 mps 749 mmHg 21%
    23:00 +32°C° 0 mm 2 mps 749 mmHg 21%

    30 March, Saturday

    Time Temperature Precipitation Wind Pressure Humidity
    00:00 +31°C° 0 mm 2 mps 749 mmHg 22%
    01:00 +30°C° 0 mm 2 mps 749 mmHg 23%
    02:00 +30°C° 0 mm 2 mps 748 mmHg 25%
    03:00 +29°C° 0 mm 2 mps 748 mmHg 26%
    04:00 +28°C° 0 mm 1 mps 748 mmHg 27%
    05:00 +28°C° 0 mm 1 mps 748 mmHg 28%
    06:00 +27°C° 0 mm 1 mps 748 mmHg 29%
    07:00 +29°C° 0 mm 1 mps 749 mmHg 27%
    08:00 +31°C° 0 mm 1 mps 750 mmHg 25%
    09:00 +33°C° 0 mm 1 mps 751 mmHg 23%
    10:00 +35°C° 0 mm 1 mps 750 mmHg 21%
    11:00 +37°C° 0 mm 1 mps 750 mmHg 18%
    12:00 +41°C° 0 mm 1 mps 750 mmHg 16%
    13:00 +41°C° 0 mm 1 mps 749 mmHg 15%
    14:00 +41°C° 0 mm 2 mps 748 mmHg 14%
    15:00 +42°C° 0 mm 2 mps 748 mmHg 13%
    16:00 +41°C° 0 mm 2 mps 747 mmHg 14%
    17:00 +41°C° 0 mm 2 mps 747 mmHg 15%
    18:00 +40°C° 0 mm 2 mps 747 mmHg 16%
    19:00 +38°C° 0 mm 2 mps 748 mmHg 17%
    20:00 +37°C° 0 mm 2 mps 748 mmHg 19%
    21:00 +35°C° 0 mm 2 mps 749 mmHg 21%
    22:00 +34°C° 0 mm 2 mps 749 mmHg 22%
    23:00 +33°C° 0 mm 1 mps 749 mmHg 24%
    Show more